{"data":{"norad_id":63073,"intl_designator":"2025-035X","name":"STARLINK-33586","alt_names":[],"object_type":"PAYLOAD","status":"ACTIVE","operator":null,"country":"US","launch_date":"2025-02-21","launch_site_code":"AFETR","launch_vehicle":null,"mission":null,"orbit_class":"UNKNOWN","rcs_meters":null,"size_class":null,"mass_kg":null,"dimensions":null,"purposes":["comms"],"wikipedia_slug":null,"has_3d_model":false,"image_url":null,"decayed_at":null,"tle_current":{"epoch":"2026-05-25T03:22:17.949792Z","epoch_age_seconds":62919,"freshness":"FRESH","line1":"1 63073U 25035X   26145.14048553  .00023681  00000+0  86678-3 0  9999","line2":"2 63073  42.9992  68.2376 0001115 272.2162  87.8562 15.27599994 71507","mean_motion":15.27599994,"eccentricity":0.0001115,"inclination_deg":42.9992,"raan_deg":68.2376,"arg_perigee_deg":272.2162,"mean_anomaly_deg":87.8562,"bstar":0.00086678,"rev_number":7150,"period_min":94.26551490285,"perigee_km":482.22421188949,"apogee_km":483.75424303821,"semimajor_km":6861.1262274638,"source":"CELESTRAK","updated_at":"2026-05-25T13:38:19.875897Z"}}}